{"data":{"norad_id":49135,"epoch":"2026-09-20T02:14:37.911840Z","epoch_age_seconds":76458,"freshness":"FRESH","line1":"1 49135U 21082F   26263.09349435 -.00000509  00000+0 -34913-4 0  9990","line2":"2 49135  69.9984 124.2792 0002693 267.1560  92.9291 14.98324540276099","mean_motion":14.9832454,"eccentricity":0.0002693,"inclination_deg":69.9984,"raan_deg":124.2792,"arg_perigee_deg":267.156,"mean_anomaly_deg":92.9291,"bstar":-3.4913e-5,"rev_number":27609,"period_min":96.107349346357,"perigee_km":570.20108410273,"apogee_km":573.94446708786,"semimajor_km":6950.2097755953,"source":"CELESTRAK","updated_at":"2026-09-20T09:00:39.247436Z"}}